Weather in Irtyshsk

Kazakhstan     53°19′58″N   75°27′31″E
temp.,
°C
wind,
m/s
gust,
m/s
humid.,
%
clouds,
%
prec.,
mm/h
press.,
hPa
HPBL,
m
18 september, sat
sat1800:00+10wnw5116256 3.1 1002341
03:00+7w511655 0.0 1004353
06:00+6wsw612685 0.0 1006379
09:00+9wsw6955100 0.0 10081081
12:00+11w6949100 0.0 10091460
15:00+11w6848100 0.0 10091475
18:00+11w4946100 0.0 10101777
21:00+10s2250100 0.0 100935
19 september, sun
sun1900:00+10s3952100 0.0 1007336
03:00+9w51063100 0.0 1007431
06:00+6wsw49746 0.0 1008245
09:00+8wsw6972100 0.0 1009607
12:00+10w7952100 0.1 10101723
15:00+9w7104595 0.0 10111729
18:00+10w6941100 0.0 10111386
21:00+7w6115253 0.0 1012543
20 september, mon
mon2000:00+4w611655 0.0 1014506
03:00+4wsw712675 0.0 1014542
06:00+3wsw712725 0.0 1015515
09:00+5w8116182 0.0 1016922
12:00+7w91153100 0.0 10161764
15:00+8w91145100 0.0 10161878
18:00+8wnw71144100 0.0 10171835
21:00+5wnw596582 0.0 1018357
21 september, tue
tue2100:00+4wnw597079 0.0 1018387
03:00+2wnw4108524 0.0 1019359
06:00+2wnw6108896 0.0 1020543
09:00+4nw7869100 0.1 1021976
12:00+5wnw6760100 0.1 10221276
15:00+7wnw6753100 0.1 10221285
18:00+6wnw6751100 0.1 10231280
21:00+5wnw5757100 0.0 10231024
22 september, wed
wed2200:00+4wnw366399 0.0 1023819
03:00+2wnw33765 0.0 102235
06:000w358233 0.0 102292
09:00+4w46635 0.0 1022399
12:00+8w56455 0.0 10211267
15:00+10wnw5740100 0.0 10202024
18:00+10nw3542100 0.0 10201229
21:00+7nne475593 0.0 1021228